Погода в Карпаче

Польша     50°46′36″N   15°45′31″E
темп.,
°C
ветер,
м/с
пор.,
м/с
влажн.,
%
обл.,
%
осадки,
мм/ч
давл.,
гПа
погр.,
м
22 мая, вс
вс2223:00+7зсз269113 0.0 1019235
02:00+6зсз239686 0.1 101895
05:00+8сз259492 0.4 1017408
08:00+8зсз378787 0.6 1017770
11:00+12сз475788 0.1 10161401
14:00+14сз465234 0.1 10151629
17:00+14ссз465272 0.1 10141763
20:00+10с11756 0.1 101519
23 мая, пн
пн2323:00+6ссв118815 0.0 101613
02:00+6вюв01929 0.0 101611
05:00+5ю11915 0.0 101511
08:00+12ююв126265 0.0 1013490
11:00+15ююв3249100 0.0 10111355
14:00+16ю4451100 0.0 10101363
17:00+16ю3556100 0.0 10081041
20:00+12ююв377589 0.0 1007335
24 мая, вт
вт2423:00+11ю3570100 0.0 1007155
02:00+10ююз387693 0.1 1007239
05:00+11ююз258397 0.0 1006171
08:00+11ююз2396100 0.4 1007138
11:00+13ююз2393100 0.0 1008425
14:00+16ююз2380100 0.3 1008781
17:00+15ююз2290100 2.1 1009389
20:00+13ююв0198100 8.2 101137
25 мая, ср
ср2523:00+11с0194100 1.4 101212
02:00+11зюз1196100 2.2 101316
05:00+10зсз1198100 6.3 101333
08:00+11с1399100 10.4 1013233
11:00+10ссз1298100 7.0 1015152
14:00+13зюз1386100 8.4 1014814
17:00+13зюз248722 1.8 1015616
20:00+11зюз22884 2.0 101628
26 мая, чт
чт2623:00+10зюз1184100 0.0 101721
02:00+8юз229349 0.0 101838
05:00+8юз239610 0.0 101953
08:00+12зюз38662 0.0 10191057
11:00+15з595392 0.0 10191765
14:00+15з496153 0.1 10201520
17:00+16зсз5857100 0.1 10201724
20:00+12зсз22799 0.1 102052